Vertical_Velocity
0 0 -1 -1 -11 -5 -1 -5 0 1 1 0 4 -4 -6 -1 -3 -6 2 2 1 -1 -2 -2 -1 -1 2 1 -1 0 -1 -1 -1 -1 -0 -1 0 -0 -1 -1 -1 -1 -1 -1 -2 -2 -2 -2 -1
1 2 2 -1 -7 -1 -5 -2 -1 -2 0 2 0 0 -2 1 1 -0 -1 1 3 -0 -2 -1 0 -1 -0 -1 1 1 -1 -1 -0 0 -1 -1 -0 1 0 -0 -1 -1 -1 -1 -1 -1 -1 -1 -1
-0 0 1 -3 -1 -3 -4 -1 -1 1 -1 2 -1 0 -0 -0 3 0 0 -3 0 -2 1 -0 -1 -1 0 0 1 -0 -0 0 -1 -1 -1 -0 -0 0 0 -0 -0 -0 -1 0 1 0 -0 0 -1
1 -2 -1 -3 -2 -5 -3 -1 -0 2 -0 2 1 -2 1 2 -4 2 -1 -0 1 -1 -0 2 -0 -1 -2 2 2 0 -0 -0 -0 -0 -2 -1 -0 -1 -1 -0 1 0 -0 -1 0 0 -1 -2 -0
3 1 0 1 -2 -1 -1 -0 0 -0 0 1 0 2 1 4 1 0 -2 -0 -2 -1 0 -0 1 -0 1 -0 0 -0 1 1 -1 -0 0 -0 -0 -0 0 -0 -1 -0 -0 -0 -2 -0 -2 -1 -0
0 -0 1 -0 -1 -1 -1 0 -1 0 2 1 -1 -0 -1 1 0 2 0 -0 4 -1 -1 0 -1 2 -1 -1 1 2 0 1 -0 0 0 -1 1 -1 0 -0 -1 -1 -1 -1 -1 -0 -1 0 -1
-5 -2 -1 -0 -1 1 -2 0 -1 -1 0 -1 1 -2 2 1 4 -0 1 1 2 3 1 -1 0 -1 0 -0 -0 1 0 1 0 0 1 -1 0 -1 -2 -1 -1 -1 0 -1 -1 -1 -1 -0 0
-3 -3 0 -1 -1 -5 -0 0 2 -0 -0 -1 -0 -1 -0 -3 0 2 2 1 2 3 1 1 1 -0 -0 -0 -0 -0 1 1 -0 1 1 -1 -0 -0 -2 -0 -1 -0 -1 -0 -2 -2 -1 -1 -1
2 -4 -0 -1 0 -3 0 -0 1 1 -2 0 -0 -1 1 0 1 1 1 3 2 2 1 1 1 0 -0 -0 0 -1 -0 1 2 1 0 -1 -1 0 -2 -1 -1 1 -1 -0 -1 -1 -1 -2 -1
-3 -2 -3 -2 -0 -0 -0 1 -1 0 1 1 1 1 2 4 1 -3 -4 -1 1 -1 -0 1 1 2 0 1 0 -2 -1 1 -0 0 0 0 -1 0 -0 -1 -1 -0 0 -1 -1 -2 -2 -1 -2
-0 -3 -1 -1 1 1 1 -1 3 -0 -0 -3 -7 -3 -2 2 7 0 -2 -2 -4 1 -1 0 1 -0 -0 1 2 0 1 -1 -2 -1 -0 1 -1 1 -1 0 1 0 1 -1 -1 -1 -2 -2 -2
-3 -1 0 1 -0 -1 -0 -0 -0 1 -2 -1 -1 3 3 -2 4 4 -1 -1 -3 -1 -1 0 0 0 -1 1 1 1 -1 -1 -1 -0 -1 1 0 0 -1 -0 -1 -1 -1 -1 -1 -2 -1 -1 -2
-1 -1 2 -1 -2 0 2 -1 -2 -3 0 0 -0 2 0 1 -5 5 3 4 1 -2 0 -1 -0 1 -0 -2 1 1 -2 -0 -1 -0 0 1 1 -0 -1 -1 -2 -1 -1 -1 -1 -2 -2 -1 -0
-3 -0 -3 -0 -2 -1 2 -2 1 -2 1 3 3 5 2 5 1 5 3 0 -2 2 1 -0 1 1 -1 -1 -1 1 1 -1 -1 -1 1 -0 -0 0 0 -1 -1 -0 -1 -2 -3 -2 -1 -1 -1
1 1 -0 -1 1 -2 2 -1 -1 0 1 3 7 4 1 -0 6 2 -1 -4 2 0 2 1 -0 0 1 -1 -1 1 1 1 0 -1 -1 -1 -0 -1 1 -1 -1 -1 -1 -2 -1 0 -1 -0 -0
-1 -4 -1 -5 1 -6 -0 -6 -3 -0 -2 2 -1 1 1 3 6 5 6 3 5 -3 -0 1 -1 1 -1 -1 -1 -0 1 1 -0 -1 -2 -0 0 0 0 -0 -2 -3 -1 -1 -0 -1 0 0 -4
-0 -1 0 -6 -0 -1 -2 -3 -2 1 2 2 3 -2 0 4 0 1 6 5 2 -1 -1 1 1 2 -0 -1 0 0 1 1 -0 -1 -2 0 -1 0 1 -1 -2 -0 -1 0 -2 -2 -3 -1 1
-1 0 0 -1 -2 1 1 -3 -0 2 0 0 -1 4 -0 5 5 11 -1 7 0 3 3 -0 -1 -1 -0 -1 -1 0 -1 -0 1 0 -1 -2 -1 0 0 -1 -0 1 -0 -1 -0 -2 -1 -3 -1
-1 0 -1 -2 -1 -3 -2 -0 -1 2 1 1 3 -4 2 2 -8 -9 -4 -0 5 4 2 1 -1 0 1 -1 -0 0 1 1 0 1 -0 -1 -1 -2 -0 1 -0 -2 -2 -4 -4 -4 -3 1 -2
1 -0 -1 -1 0 -3 0 1 0 -0 -0 -3 1 -10 3 2 -6 -2 4 3 7 7 -3 2 0 1 1 -1 0 1 -1 1 2 0 0 1 -2 -0 -2 -1 -1 -2 -0 -2 -2 -3 -3 -5 -4
0 -1 -1 -4 1 -1 -2 -1 -0 0 1 0 2 4 9 11 -6 -7 2 3 -3 3 -1 2 0 0 -1 -2 -0 -1 1 1 1 1 1 -3 -0 -1 -0 1 1 1 -1 -1 -2 0 -2 -2 0
-0 -1 -0 0 -2 -3 -3 -6 -1 0 0 0 1 1 -2 -4 -0 4 -5 3 -0 -1 2 2 0 -2 -1 1 1 1 1 1 -0 0 -1 -1 0 0 1 -0 -1 -2 -2 -1 -1 0 -1 -1 0
-7 0 -1 -1 -1 -4 -4 -9 -8 -0 -0 -1 -1 -1 -2 1 2 -2 1 5 1 -0 -1 -1 -2 2 3 1 1 1 -0 -1 1 1 1 0 -0 -1 -3 -2 -1 -0 -1 -1 -3 0 -0 -0 -3
-0 -0 -2 -1 -1 -5 -1 -6 -6 -2 -2 -1 -0 1 -1 -0 1 0 -1 -3 5 -1 -2 -1 -1 4 3 -1 -1 -1 0 2 2 0 -1 -1 -0 -1 -2 -1 -2 -1 -2 -1 -2 1 1 0 0
1 -4 -3 -7 -8 -6 -1 -3 -7 -1 -1 -0 -1 1 1 -1 -1 0 3 5 -1 -3 -4 0 1 0 0 -2 -2 0 1 -1 -1 -1 -1 -0 1 2 2 2 2 1 2 4 -0 2 2 1 1
1 -3 -7 -3 -3 -5 -1 -3 -13 -2 0 0 -1 2 3 3 4 2 3 1 -1 -2 -2 1 -1 3 1 1 -1 -1 -2 -1 0 1 -0 -1 -1 -1 -2 -1 -1 -1 -1 -2 -1 1 2 -3 1
-3 -3 -2 -5 -0 -5 -3 -5 -9 -2 -0 -0 0 1 1 2 3 3 2 -3 -3 -0 0 0 2 -1 -1 -2 -1 1 -0 1 1 2 1 1 -1 -0 -1 -1 -0 1 -0 -1 1 0 1 2 2
-0 -2 -8 -5 -4 -1 -4 -1 -7 -3 -1 -0 1 3 3 3 1 -1 2 -1 -0 2 2 2 3 3 1 3 3 3 2 3 2 1 1 -0 0 -0 1 -0 0 -0 -0 -1 0 -0 0 -2 3
-6 -2 -4 -6 -3 -5 -2 -8 -4 -2 -0 -0 1 -0 -0 -0 1 3 1 -3 -1 1 2 3 4 4 3 3 2 1 2 2 1 -0 -1 -2 -1 -1 -2 -3 -2 -2 -0 0 -2 -2 -2 -2 -3
-1 -0 -1 -6 -3 -1 -3 -10 1 0 0 0 2 1 0 2 2 2 3 3 1 1 1 1 2 1 1 1 2 1 -2 -2 -1 -0 0 0 -1 1 -0 0 0 1 0 -1 -2 -4 0 -2 -3
Height
1518 1520 1521 1522 1533 1535 1536 1524 1512 1512 1511 1511 1512 1515 1519 1522 1523 1534 1526 1531 1536 1539 1542 1545 1548 1550 1551 1552 1553 1554 1554 1555 1555 1555 1555 1554 1554 1553 1552 1551 1550 1549 1548 1547 1546 1546 1545 1544 1543
1516 1519 1521 1521 1534 1542 1533 1517 1512 1510 1508 1509 1512 1516 1519 1523 1522 1523 1527 1531 1537 1540 1543 1546 1548 1550 1552 1553 1554 1554 1555 1555 1555 1555 1554 1554 1554 1553 1552 1551 1549 1548 1547 1546 1545 1544 1543 1542 1541
1515 1518 1520 1521 1529 1531 1528 1512 1509 1509 1510 1509 1513 1517 1520 1522 1523 1524 1528 1531 1536 1541 1544 1546 1549 1551 1553 1554 1555 1555 1555 1555 1555 1555 1554 1554 1553 1552 1552 1550 1549 1548 1546 1545 1544 1543 1541 1540 1539
1514 1519 1520 1522 1524 1516 1511 1506 1508 1510 1511 1510 1511 1519 1522 1521 1524 1526 1529 1532 1536 1541 1544 1547 1549 1552 1553 1555 1555 1556 1556 1555 1555 1555 1555 1554 1553 1552 1551 1550 1549 1548 1546 1544 1543 1541 1540 1538 1536
1513 1515 1520 1522 1517 1510 1507 1505 1508 1508 1509 1511 1513 1519 1522 1523 1525 1528 1530 1533 1537 1541 1545 1548 1550 1552 1554 1555 1556 1556 1556 1556 1556 1555 1555 1554 1553 1553 1551 1550 1548 1547 1545 1544 1543 1541 1539 1537 1535
1512 1512 1520 1515 1515 1507 1504 1504 1507 1509 1511 1511 1514 1516 1523 1524 1526 1529 1532 1534 1539 1542 1545 1548 1551 1553 1554 1555 1556 1556 1556 1556 1556 1556 1555 1554 1553 1552 1551 1550 1549 1547 1546 1544 1542 1540 1537 1536 1533
1510 1514 1514 1511 1514 1507 1504 1503 1505 1507 1510 1511 1512 1517 1521 1523 1526 1530 1533 1536 1540 1543 1545 1548 1551 1553 1554 1556 1556 1557 1557 1556 1556 1556 1555 1554 1553 1552 1551 1550 1549 1547 1545 1543 1540 1538 1536 1534 1532
1509 1512 1512 1512 1511 1509 1502 1503 1503 1505 1508 1510 1511 1513 1519 1519 1525 1531 1534 1538 1541 1543 1546 1549 1551 1553 1555 1556 1557 1557 1558 1557 1557 1556 1554 1554 1553 1552 1551 1550 1548 1546 1544 1542 1540 1537 1535 1533 1531
1508 1515 1517 1509 1510 1505 1502 1502 1502 1504 1505 1509 1510 1511 1512 1517 1523 1529 1533 1537 1540 1543 1546 1549 1551 1553 1555 1556 1557 1558 1558 1558 1557 1556 1555 1554 1553 1552 1551 1550 1548 1546 1544 1541 1539 1537 1535 1532 1530
1507 1514 1512 1506 1505 1503 1503 1503 1502 1504 1505 1508 1509 1512 1514 1517 1520 1525 1530 1535 1539 1543 1546 1549 1552 1554 1555 1556 1557 1558 1558 1558 1557 1556 1555 1554 1553 1552 1551 1550 1548 1546 1544 1542 1539 1536 1534 1532 1530
1506 1510 1506 1504 1504 1505 1503 1504 1504 1502 1506 1504 1505 1509 1514 1519 1520 1523 1529 1535 1539 1543 1546 1549 1552 1554 1555 1556 1557 1557 1558 1558 1557 1557 1556 1555 1553 1552 1552 1550 1549 1547 1544 1542 1539 1536 1534 1531 1528
1505 1504 1504 1504 1505 1506 1505 1504 1502 1501 1501 1502 1506 1509 1512 1517 1522 1523 1527 1533 1538 1542 1546 1549 1552 1554 1555 1556 1557 1557 1557 1557 1557 1557 1556 1555 1554 1553 1552 1550 1549 1547 1544 1541 1538 1535 1533 1530 1527
1504 1503 1503 1504 1505 1505 1504 1503 1502 1501 1501 1501 1505 1510 1513 1516 1523 1527 1530 1533 1538 1542 1545 1549 1551 1553 1554 1556 1556 1557 1557 1557 1557 1557 1556 1555 1554 1553 1552 1550 1548 1546 1543 1541 1538 1535 1532 1529 1526
1502 1503 1503 1504 1505 1505 1504 1501 1501 1500 1500 1501 1503 1508 1513 1517 1521 1525 1529 1532 1537 1542 1545 1548 1551 1552 1553 1555 1556 1556 1556 1556 1556 1556 1556 1555 1554 1553 1551 1550 1548 1546 1543 1540 1537 1534 1531 1528 1525
1500 1504 1503 1501 1503 1505 1504 1502 1500 1499 1501 1500 1504 1510 1513 1518 1522 1525 1528 1532 1536 1542 1545 1548 1549 1551 1552 1554 1555 1555 1555 1556 1556 1556 1555 1555 1554 1553 1551 1549 1547 1545 1543 1540 1537 1535 1533 1529 1526
1502 1504 1509 1501 1501 1504 1505 1509 1498 1498 1500 1500 1505 1509 1513 1517 1520 1525 1528 1533 1537 1541 1545 1547 1549 1550 1551 1553 1553 1554 1554 1555 1555 1554 1554 1554 1553 1552 1551 1548 1546 1545 1542 1539 1537 1534 1532 1529 1525
1504 1512 1508 1504 1497 1503 1505 1504 1496 1498 1500 1503 1505 1508 1512 1518 1523 1525 1530 1534 1536 1540 1544 1546 1548 1549 1550 1551 1552 1553 1554 1553 1553 1553 1553 1553 1552 1551 1549 1547 1546 1544 1541 1539 1537 1534 1531 1528 1525
1505 1507 1507 1506 1499 1501 1505 1503 1499 1498 1500 1501 1505 1508 1511 1513 1524 1526 1532 1533 1536 1539 1542 1544 1546 1547 1549 1550 1551 1552 1552 1552 1552 1551 1551 1551 1551 1550 1548 1547 1544 1542 1540 1539 1537 1534 1531 1528 1526
1505 1505 1504 1501 1495 1500 1505 1502 1499 1498 1501 1503 1506 1509 1512 1516 1523 1525 1530 1534 1535 1537 1540 1542 1544 1546 1547 1548 1550 1550 1550 1550 1550 1550 1550 1549 1549 1548 1547 1546 1543 1541 1540 1538 1535 1533 1531 1528 1526
1505 1503 1502 1497 1495 1499 1503 1504 1502 1501 1502 1503 1505 1511 1514 1516 1520 1527 1528 1533 1534 1536 1540 1540 1541 1543 1545 1546 1548 1548 1548 1549 1548 1548 1548 1547 1547 1546 1546 1544 1542 1540 1539 1537 1535 1532 1530 1528 1525
1502 1503 1502 1499 1498 1500 1500 1505 1504 1501 1502 1504 1508 1511 1509 1510 1512 1522 1528 1530 1531 1533 1536 1537 1538 1540 1543 1544 1546 1546 1547 1547 1547 1547 1546 1546 1546 1545 1544 1543 1541 1539 1537 1535 1533 1531 1529 1527 1525
1504 1498 1498 1497 1503 1516 1505 1527 1504 1503 1503 1502 1502 1503 1505 1508 1514 1517 1524 1528 1530 1532 1534 1535 1536 1538 1540 1541 1543 1544 1545 1544 1544 1544 1544 1544 1544 1543 1542 1541 1539 1537 1535 1534 1532 1529 1527 1525 1524
1500 1496 1496 1499 1508 1510 1510 1523 1508 1505 1503 1502 1502 1504 1507 1510 1514 1518 1523 1524 1527 1529 1531 1532 1534 1536 1537 1539 1541 1542 1542 1543 1542 1542 1542 1542 1542 1541 1540 1539 1537 1534 1532 1530 1529 1527 1525 1522 1521
1496 1497 1498 1503 1506 1522 1516 1526 1515 1510 1505 1502 1503 1504 1506 1508 1512 1515 1520 1523 1524 1526 1528 1530 1531 1533 1533 1536 1538 1539 1540 1540 1540 1539 1540 1540 1540 1539 1538 1536 1534 1532 1530 1528 1526 1524 1521 1519 1516
1497 1500 1528 1525 1537 1531 1525 1527 1507 1506 1505 1503 1502 1504 1506 1507 1512 1516 1518 1520 1520 1525 1527 1529 1529 1530 1531 1533 1536 1537 1537 1538 1538 1538 1538 1538 1537 1537 1535 1533 1531 1529 1527 1524 1522 1520 1518 1516 1513
1499 1501 1520 1523 1537 1533 1519 1520 1510 1505 1503 1501 1498 1501 1504 1507 1510 1514 1516 1519 1521 1525 1527 1527 1528 1528 1530 1531 1533 1535 1535 1537 1536 1536 1535 1535 1534 1533 1531 1529 1527 1525 1523 1520 1518 1516 1513 1512 1510
1498 1509 1506 1525 1538 1531 1533 1509 1503 1501 1501 1501 1498 1500 1504 1507 1510 1514 1515 1518 1522 1524 1526 1526 1527 1527 1529 1531 1533 1533 1534 1535 1534 1533 1532 1532 1531 1529 1528 1526 1524 1522 1519 1517 1515 1512 1510 1508 1506
1502 1505 1512 1523 1521 1519 1532 1516 1527 1512 1502 1501 1502 1501 1505 1508 1511 1514 1517 1519 1522 1524 1526 1527 1528 1529 1530 1532 1532 1532 1533 1533 1532 1531 1530 1529 1527 1525 1523 1522 1520 1518 1515 1513 1511 1508 1506 1504 1501
1508 1508 1510 1516 1519 1522 1532 1524 1512 1509 1505 1501 1499 1504 1508 1511 1514 1515 1516 1520 1523 1525 1527 1528 1528 1529 1530 1531 1531 1532 1532 1531 1530 1529 1527 1525 1523 1521 1519 1518 1515 1513 1511 1508 1506 1504 1501 1499 1496
1505 1505 1507 1524 1508 1523 1520 1526 1508 1508 1505 1503 1505 1508 1511 1514 1515 1518 1521 1523 1525 1526 1527 1528 1528 1528 1530 1531 1530 1530 1530 1529 1527 1526 1524 1522 1520 1518 1515 1513 1510 1508 1505 1503 1500 1498 1496 1493 1490